{"data":{"norad_id":67443,"intl_designator":"2026-007J","name":"HULIANWANG DIGUI-145","alt_names":[],"object_type":"PAYLOAD","status":"ACTIVE","operator":null,"country":"PRC","launch_date":"2026-01-13","launch_site_code":"WSC","launch_vehicle":null,"mission":null,"orbit_class":"UNKNOWN","rcs_meters":null,"size_class":null,"mass_kg":null,"dimensions":null,"purposes":[],"wikipedia_slug":null,"has_3d_model":false,"image_url":null,"decayed_at":null,"tle_current":{"epoch":"2026-09-20T19:37:14.688768Z","epoch_age_seconds":69205,"freshness":"FRESH","line1":"1 67443U 26007J   26263.81753112 -.00000105  00000+0  41764-4 0  9998","line2":"2 67443  50.0082 102.5651 0000386  36.9171 323.1728 13.29329752 33516","mean_motion":13.29329752,"eccentricity":3.86e-5,"inclination_deg":50.0082,"raan_deg":102.5651,"arg_perigee_deg":36.9171,"mean_anomaly_deg":323.1728,"bstar":4.1764e-5,"rev_number":3351,"period_min":108.32526676195,"perigee_km":1149.0018490578,"apogee_km":1149.582966608,"semimajor_km":7527.4294078329,"source":"CELESTRAK","updated_at":"2026-09-21T09:00:16.634861Z"}}}